Terug naar catalogus

FENGYUN 1C DEB

ActiefPO
NORAD 30279·DEBRIS·🇨🇳 China

Gelanceerd May 10, 1999 vanaf Taiyuan Satellite Launch Center

Loading…

Volgende Passages (komende 24 uur)

TLE

VersSource: Space-Track

Epoch: Sep 14, 2026, 15:04 UTC

1 30279U 99025YQ  26257.62779073  .00001594  00000-0  56134-3 0  9990
2 30279  99.1731 208.9864 0217332   3.6591 172.5988 14.24043178 15361

Volg FENGYUN 1C DEB in realtime met AllMySat

Download on the App Store